Regional Weather Roundup
Issued by NWS

Home | Current Version | Previous Version | Text Only | Print | Product List | Glossary On
Versions: 1 2 3 4 5 6 7 8 9 10 11 12 13 14 15 16 17 18 19 20 21 22 23 24 25 26 27
000
ASUS42 KTBW 280917
RWRFL
FLORIDA REGIONAL WEATHER ROUNDUP
NATIONAL WEATHER SERVICE TAMPA BAY RUSKIN FL
500 AM EDT MON MAY 28 2018

NOTE: "FAIR" INDICATES FEW OR NO CLOUDS BELOW 12,000 FEET WITH NO
SIGNIFICANT WEATHER AND/OR OBSTRUCTIONS TO VISIBILITY.

FLZ001>010-012>015-112-114-115-281000-
PANHANDLE FLORIDA

CITY           SKY/WX    TMP DP  RH WIND       PRES   REMARKS
PENSACOLA      CLOUDY    73  69  87 NE14G21   29.69F
PENSACOLA NAS  CLOUDY    74  69  85 N14       29.68S
CRESTVIEW      LGT RAIN  72  70  93 VRB7      29.71F
DUKE FIELD     CLOUDY    72  71  98 N9        29.69S
VALPARAISO     MOCLDY    73  71  95 N9        29.66F
MARY ESTHER    LGT RAIN  73  70  88 NE15      29.65
TRI COUNTY     LGT RAIN  73  72  96 N6        29.71F
PANAMA CITY    CLOUDY    74  71  91 NE12      29.65F
TYNDALL AFB    FAIR      74  73  97 NE10      29.64F
APALACHICOLA   CLOUDY    78  75  90 E15G29    29.63F

STATION/POSITION SKY/WX   TEMP    WIND        PRES    WAVE   SWELL
                          AIR SEA DIR/SP/G            HT/PER HT/PER
                          (F)     (DEG/KT/KT) (MB)    (FT/S) (FT/S)
30.1N   87.6W              75      20/ 21/ 25 1004.6F   7/ 9   5/ 9
29.2N   88.2W                 80   10/ 19/ 23 1004.6F  12/10  10/10
28.8N   86.0W              76 77   70/ 10/ 12  991.6F   8/ 8   7/ 8
PANAMA CITY BEAC           74 79   50/  9/ 14 1004.4F
TOWER C                    75     130/ 26/ 28 1003.0S

$$
FLZ011-016>038-118-127-128-134-139-239-281000-
NORTH FLORIDA

CITY           SKY/WX    TMP DP  RH WIND       PRES   REMARKS
MARIANNA       LGT RAIN  74  73  97 NE9       29.70F
TALLAHASSEE    LGT RAIN  75  73  93 E9        29.70F
PERRY          LGT RAIN  75  73  93 SE7       29.74R
LIVE OAK       CLOUDY    75  75 100 VRB5      29.77R
CROSS CITY     CLOUDY    75 N/A N/A SE6       29.74R
LAKE CITY      MOCLDY    72  72 100 SE5       29.77S
GAINESVILLE    CLOUDY    76  73  91 SE7       29.79S
WILLISTON      PTCLDY    79  77  94 SE8       29.76S
PALATKA        FAIR      75  75 100 SE7       29.79S
MAYPORT NAS    FAIR      77  73  87 S8        29.80S
JACKSONVILLE   CLOUDY    75  73  93 SE5       29.80R
JAX NAS        FAIR      77  74  90 S8        29.80S
JAX CECIL      CLOUDY    75  75 100 CALM      29.79S
FERNANDINA BEA FAIR      77  73  87 S8        29.80S
ST AUGUSTINE   FAIR      76  73  91 S8        29.80F
PALM COAST     CLOUDY    76  73  87 S9        29.80S

STATION/POSITION SKY/WX   TEMP    WIND        PRES    WAVE   SWELL
                          AIR SEA DIR/SP/G            HT/PER HT/PER
                          (F)     (DEG/KT/KT) (MB)    (FT/S) (FT/S)
SHELL POINT      NOT AVBL
KEATON BEACH               75      70/  7/ 10 1006.6R
CEDAR KEY                  78     150/ 21/ 23 1006.8R
FERNANDINA                 78 79  140/  5/  9 1010.2R
30.7N   81.3W                 77                N/A     6/ 8
MAYPORT                    76 79  180/  4/  6 1009.5S
31.4N   80.9W              77 77  160/ 14/ 17 1009.4R   6/ 9   5/ 9
ST AUGUSTINE               77 77  170/ 11/ 11 1009.0S

$$
FLZ040-043>046-052-053-057-058-063-144-281000-
INTERIOR CENTRAL FLORIDA

CITY           SKY/WX    TMP DP  RH WIND       PRES   REMARKS
OCALA          CLOUDY    77  73  87 VRB5      29.78R
LEESBURG       FAIR      78  75  90 S12       29.79R
SANFORD        CLOUDY    77  73  87 SE10      29.79S
ORLANDO EXEC   CLOUDY    78  75  90 S10       29.79S
ORLANDO INTL   CLOUDY    77  74  90 S13       29.80S
KISSIMMEE      CLOUDY    77  74  90 S12       29.81S
WINTER HAVEN   CLOUDY    77  74  90 S13       29.80S
LAKELAND       CLOUDY    75  73  94 S12G18    29.78S
BARTOW         CLOUDY    75  75 100 S10G16    29.80S
SEBRING        PTSUNNY   77  73  86 S14       29.81F
OKEECHOBEE     CLOUDY    75  72  88 S13       29.83R

$$
FLZ041-047-054-059-064-141-147-281000-
EAST CENTRAL FLORIDA

CITY           SKY/WX    TMP DP  RH WIND       PRES   REMARKS
DAYTONA BEACH  MOCLDY    77  75  93 S10       29.80S
DELAND         MOCLDY    77  73  88 SE10      29.79F
JFK SPACE CTR  FAIR      77  74  90 S8        29.80S
CAPE CANAVERAL FAIR      77  74  91 S15       29.80S
PATRICK AFB    FAIR      77  75  93 S18       29.81S
MELBOURNE      FAIR      78  71  79 S17G25    29.82R
VERO BEACH     LGT RAIN  75  73  93 S14       29.84R FOG
FT PIERCE      LGT RAIN  76  75  97 S5        29.84S
STUART         CLOUDY    77  73  88 S10       29.85S

STATION/POSITION SKY/WX   TEMP    WIND        PRES    WAVE   SWELL
                          AIR SEA DIR/SP/G            HT/PER HT/PER
                          (F)     (DEG/KT/KT) (MB)    (FT/S) (FT/S)
28.5N   80.2W              78 77  180/ 19/ 23 1010.0R   6/ 8   3/ 8
28.9N   78.5W              79 78  150/ 21/ 25 1012.1F   9/ 8
TRIDENT PIER               77 80  160/ 13/ 16 1011.0R
28.4N   80.5W                 78                N/A     4/ 6
27.5N   80.2W                 72                N/A     5/ 5

$$
FLZ050-056-061-142-242-148-248-149-249-151-251-155-255-
160-260-281000-
WEST CENTRAL FLORIDA

CITY           SKY/WX    TMP DP  RH WIND       PRES   REMARKS
CRYSTAL RIVER  FAIR      75  72  88 SE7       29.75S
INVERNESS      MOCLDY    75  75 100 CALM      29.77S
BROOKSVILLE    FAIR      76  73  91 SE13      29.76S
CLEARWATER AIR CLOUDY    77  72  83 S7G18     29.74S
ST PETE CLEARW CLOUDY    77  77 100 S13       29.74S
TAMPA INTL     MOCLDY    78  74  87 SE10      29.76S
TAMPA EXEC     RAIN      77  73  88 S12       29.77S
MACDILL AFB    MOCLDY    77  74  90 S13       29.75S
PETER O KNIGHT CLOUDY   N/A N/A N/A SE15      29.76S
ST PETERSBURG  CLOUDY    79  76  90 S16       29.73S
SARASOTA       MOCLDY    79  75  87 S20G25    29.74S
VENICE         CLOUDY    81  77  89 S18G26    29.77S

STATION/POSITION SKY/WX   TEMP    WIND        PRES    WAVE   SWELL
                          AIR SEA DIR/SP/G            HT/PER HT/PER
                          (F)     (DEG/KT/KT) (MB)    (FT/S) (FT/S)
27.3N   84.2W                 77                N/A     7/ 6
CLEARWATER BEACH              80  150/ 12/ 17 1006.8S
MIDDLE TAMPA BAY           78     170/ 12/ 14 1007.4R
VENICE                     79 79  160/ 24/ 26 1007.9S

$$
FLZ066-069-070-075>078-162-262-165-265-281000-
SOUTHWEST FLORIDA AND KEYS

CITY           SKY/WX    TMP DP  RH WIND       PRES   REMARKS
PUNTA GORDA    FAIR      77  73  87 S14       29.80S
FT MYERS       FAIR      78  74  87 S8        29.79S
SOUTHWEST INTL FAIR      76  75  97 S9        29.80S
NAPLES         MOCLDY    78  77  96 S9        29.80S
MARCO ISLAND   MOCLDY    78  76  93 S12       29.82R
IMMOKALEE      MOCLDY    75  73  94 SE9       29.83S
MARATHON       CLOUDY   N/A N/A N/A SE9G20    29.84R
KEY WEST NAS   CLOUDY    77  75  93 S16       29.82R
KEY WEST INTL  LGT RAIN  79  78  97 S15       29.82S

STATION/POSITION SKY/WX   TEMP    WIND        PRES    WAVE   SWELL
                          AIR SEA DIR/SP/G            HT/PER HT/PER
                          (F)     (DEG/KT/KT) (MB)    (FT/S) (FT/S)
NAPLES                     79 80              1009.4R
26.0N   85.6W              80 82  230/ 17/ 21 1005.5
DRY TORTUGAS               80     200/ 13/ 14 1008.6F
SAND KEY                   78                 1009.3F
SOMBRERO KEY               78     130/ 18/ 22 1009.8F
LONG KEY                   77 79  160/ 22/ 25 1010.5S
MOLASSES REEF              75 80  130/ 21/ 23 1011.8R

$$
FLZ067-068-071>074-168-172>174-281000-
SOUTHEAST FLORIDA

CITY           SKY/WX    TMP DP  RH WIND       PRES   REMARKS
W PALM BEACH   LGT RAIN  76  74  93 S18G30    29.85S
FT LAUDER-EXEC MOCLDY    76  75  97 SE12G21   29.85F
FT LAUDERDALE  MOCLDY    75  74  96 S16       29.85R
POMPANO BEACH  LGT RAIN  76  72  87 S17G28    29.85F
PEMBROKE PINES FAIR      76  72  87 S13       29.87R
OPA LOCKA      FAIR      75  72  90 S21       29.86F
MIAMI          CLOUDY    74  73  97 SE12G24   29.86R
WEST KENDALL   MOCLDY    75  70  84 S10       29.86R
HOMESTEAD      MOCLDY    75  72  88 SE10G20   29.85S

STATION/POSITION SKY/WX   TEMP    WIND        PRES    WAVE   SWELL
                          AIR SEA DIR/SP/G            HT/PER HT/PER
                          (F)     (DEG/KT/KT) (MB)    (FT/S) (FT/S)
PORT EVERGLADES            77     160/ 17/ 24 1011.0
VIRGINIA KEY               76 79  150/ 17/ 22 1010.8R
LAKE WORTH                 77 78  180/ 27/ 34 1011.7R
FOWEY ROCKS                75 78  140/ 34/ 36 1011.3R
SETTLEMENT POINT           78     170/ 17/ 23 1011.4F

$$





USA.gov is the U.S. government's official web portal to all federal, state and local government web resources and services.